Location: Newark
(27.9675°N, 86.8869°E)
Time: 04:23:21
(UTC+00:00)

SR - Pass Details

Date: 21 October 2019
Orbit: 574 x 882 km, 66.7° (Epoch: 16 November)

Event Time Altitude Azimuth Distance (km) Brightness Sun altitude
Rises 03:04:31 0° 310° (NW) 3,480 ? 33.2°
Reaches altitude 10° 03:08:20 10° 286° (WNW) 2,525 ? 33.9°
Maximum altitude 03:11:09 14° 257° (WSW) 2,241 ? 34.3°
Drops below altitude 10° 03:13:56 10° 228° (SW) 2,473 ? 34.8°
Sets 03:17:37 0° 203° (SSW) 3,353 ? 35.5°
